Temperature
22 21 21 21 21 21 20 20 20 20 19 19 19 19 19 19 19 19 18 18 18 18 18 18 18 18 18 18 18 18 18 18 17 17 17 17 17 17 17 17 17 17 17
21 22 21 21 21 21 20 20 20 20 20 20 19 19 19 19 19 19 18 18 18 18 18 18 18 18 18 18 18 18 18 18 17 17 17 17 17 17 17 17 17 17 17
22 22 22 21 21 21 21 20 20 20 20 20 19 19 19 19 19 19 19 18 18 18 18 18 18 18 18 18 18 18 18 18 17 17 17 17 17 17 17 17 17 17 17
22 22 22 22 22 21 21 21 20 20 20 20 19 19 19 19 19 19 19 19 18 18 18 18 18 18 18 18 18 18 18 18 17 17 17 17 17 16 16 17 17 17 17
22 22 22 22 22 22 21 21 21 20 20 20 20 19 19 19 19 19 19 19 19 18 18 18 18 18 18 18 18 18 18 18 17 17 17 17 17 17 16 16 17 17 17
23 23 23 22 22 22 21 21 21 20 20 20 20 20 19 19 19 19 19 19 19 19 18 18 18 18 18 18 18 18 17 17 17 17 17 17 17 17 16 16 16 16 17
23 23 22 22 22 22 22 21 21 21 20 20 20 20 20 19 19 19 19 19 19 19 19 18 18 18 18 18 18 18 18 17 17 17 17 17 17 17 17 16 16 16 16
23 23 23 23 22 22 22 21 21 21 21 20 20 20 20 19 19 19 19 19 19 19 18 18 18 18 18 18 18 18 17 17 17 17 17 17 17 16 16 16 16 16 16
23 23 23 23 23 22 22 22 21 21 21 20 20 20 20 19 19 19 19 19 19 18 18 18 18 18 18 18 18 18 17 17 17 17 17 16 16 16 16 16 16 16 15
23 23 23 23 23 23 22 22 21 21 21 20 20 20 20 19 19 19 19 19 19 18 18 18 18 18 18 17 17 17 17 17 17 17 16 16 16 16 16 16 16 15 15
23 23 23 23 23 22 22 22 21 21 21 20 20 20 20 20 19 19 19 19 19 18 18 18 18 18 18 17 17 17 17 17 17 16 16 16 16 16 16 16 16 15 15
23 23 23 23 22 22 22 22 21 21 21 20 20 20 20 20 19 19 19 19 18 18 18 18 18 18 17 17 17 17 17 17 17 16 16 16 16 16 16 16 15 15 15
23 23 22 22 22 22 22 21 21 21 21 20 20 20 20 19 19 19 19 19 18 18 18 18 18 17 17 17 17 17 17 17 16 16 16 16 16 16 16 15 15 15 15
22 22 22 22 22 22 22 21 21 21 21 21 20 20 20 20 19 19 19 19 18 18 18 18 17 17 17 17 17 17 17 16 16 16 16 16 16 16 15 15 15 15 15
22 22 22 22 22 22 21 21 21 21 21 21 20 20 20 20 19 19 19 18 18 18 18 17 17 17 17 17 17 17 16 16 16 16 16 16 15 15 15 15 15 15 15
21 22 22 22 22 21 21 21 21 21 20 20 20 20 20 19 19 19 19 18 18 18 17 17 17 17 17 17 17 17 16 16 16 16 16 15 15 15 15 15 15 15 14
22 22 22 22 21 21 21 21 21 20 20 20 20 20 19 19 19 18 18 18 18 18 17 17 17 17 17 17 16 16 16 16 16 15 15 15 15 15 15 15 15 14 14
22 22 22 21 21 21 21 21 20 20 20 20 19 19 19 19 18 18 18 18 18 17 17 17 17 16 16 16 16 16 16 15 15 15 15 15 15 15 15 14 14 14 14
22 22 22 21 21 21 21 20 20 20 20 20 19 19 18 18 18 18 18 17 17 17 17 17 16 16 16 16 16 15 15 15 15 15 15 14 15 14 14 14 14 14 14
21 21 22 21 21 21 20 20 20 20 19 19 19 18 18 18 18 18 17 17 17 17 16 16 16 16 16 16 15 15 15 15 15 14 15 14 14 14 14 14 14 14 14
21 21 21 21 20 20 20 20 19 19 19 19 18 18 18 17 17 17 17 17 16 16 16 16 16 16 15 15 15 15 14 14 14 14 14 14 14 14 14 14 14 14 13
20 21 20 20 20 20 19 19 19 19 19 18 18 18 17 17 17 17 16 16 16 16 15 15 15 15 15 15 14 14 14 14 14 14 14 14 14 14 13 13 13 13 13
19 20 20 20 19 19 19 19 19 19 18 18 18 17 17 17 16 16 16 16 15 15 15 15 15 15 14 14 14 14 14 13 13 13 13 13 13 13 13 13 13 13 13
19 19 19 19 19 18 18 18 18 18 18 17 17 17 17 16 16 16 16 15 15 15 14 14 14 14 14 14 13 13 13 13 13 13 13 13 13 13 13 13 13 12 12
18 18 18 18 18 18 18 18 18 17 17 17 17 16 16 16 16 15 15 15 15 14 14 14 14 14 13 13 13 13 13 13 13 13 13 13 13 12 12 12 12 12 12
17 17 18 18 18 17 17 17 17 17 16 16 16 16 16 15 15 15 14 14 14 14 14 14 13 13 13 13 13 13 13 13 13 12 12 12 12 12 12 12 12 12 12
Wind_Speed
5 5 5 6 5 5 4 4 4 4 4 3 2 2 1 0 0 0 1 1 1 2 2 2 2 2 2 2 2 2 2 1 1 1 2 2 1 1 2 2 2 2 3
5 6 5 6 6 6 6 5 5 4 4 3 2 2 2 1 1 0 1 0 1 2 2 2 2 2 2 2 2 2 1 1 1 1 1 2 3 2 2 1 1 2 2
9 7 7 7 7 7 8 7 6 5 4 4 3 2 2 2 1 1 1 1 1 1 2 2 2 3 3 3 2 3 3 2 0 1 2 1 2 2 2 1 1 1 1
8 8 8 8 8 8 7 6 6 5 5 5 4 4 3 2 2 1 1 1 0 1 1 2 2 2 3 3 3 3 3 3 2 1 1 2 2 1 2 2 2 2 2
10 10 10 9 8 7 6 6 5 4 4 5 5 4 3 2 1 0 0 1 1 0 1 1 2 2 2 2 2 2 2 3 3 2 1 1 1 2 2 3 3 2 2
9 9 8 7 7 6 6 6 6 5 4 5 5 5 5 4 3 2 1 1 1 0 1 2 2 2 2 2 2 2 3 2 2 2 2 2 2 2 3 3 3 3 3
8 7 8 8 8 7 7 7 6 5 5 5 5 5 5 5 5 4 3 3 2 2 2 2 2 2 3 3 3 3 2 3 2 3 2 2 3 2 2 2 2 2 2
7 8 9 9 8 8 8 7 7 7 6 6 5 5 5 4 4 4 4 4 3 3 2 2 2 3 3 3 3 2 2 2 2 3 2 2 2 2 3 3 2 1 2
7 8 8 8 8 9 9 9 8 7 6 6 5 4 4 4 4 4 3 3 3 3 3 3 2 2 2 3 3 2 2 2 2 3 2 2 2 2 2 3 3 3 2
5 6 7 7 7 8 7 7 7 7 6 5 5 5 4 4 4 3 3 3 3 3 2 2 2 2 2 2 2 2 2 2 2 2 2 2 2 2 2 3 2 2 3
6 6 6 6 6 6 6 6 6 5 5 5 4 4 3 4 3 3 4 3 3 3 3 3 3 3 2 2 2 3 2 3 2 2 2 3 3 2 2 2 2 2 2
5 5 5 5 5 5 5 5 6 6 6 4 4 3 3 3 3 4 4 4 4 3 3 3 3 3 3 3 3 3 3 3 3 3 3 3 2 1 2 2 2 2 2
3 4 4 5 6 6 6 6 6 6 5 5 4 3 3 4 4 4 4 3 4 3 3 3 3 4 4 4 4 4 4 4 4 3 3 3 2 2 1 2 2 2 2
4 4 4 5 5 6 5 5 5 6 6 6 6 5 5 5 5 4 3 3 3 3 3 3 4 4 4 4 4 3 3 3 3 2 3 3 3 3 2 2 2 2 2
3 5 5 5 5 5 5 5 5 5 5 5 5 6 5 4 4 4 3 3 3 3 3 3 3 3 3 3 3 3 4 3 2 2 2 3 3 2 2 2 2 2 2
4 4 5 5 6 6 5 4 4 4 5 5 5 4 3 4 4 4 4 3 3 3 2 3 3 3 3 3 4 4 3 3 2 2 2 2 1 1 1 2 2 3 3
5 5 5 6 6 6 6 6 5 4 5 5 4 4 4 4 4 4 3 4 4 3 3 3 3 3 3 2 3 4 4 3 3 2 2 1 1 0 1 1 1 1 2
5 5 5 6 5 5 4 4 3 4 4 4 4 3 4 4 3 3 3 3 3 3 3 2 2 2 2 2 3 4 3 2 1 2 2 1 1 1 1 1 1 0 1
4 4 5 6 4 4 4 4 3 3 4 4 4 4 4 4 4 3 3 2 2 1 2 1 2 2 2 2 3 4 2 2 1 1 1 1 1 1 2 2 1 0 1
2 2 3 4 4 4 5 5 4 4 4 5 5 5 5 5 4 4 3 2 2 2 1 1 2 2 2 2 3 5 3 2 2 1 1 2 2 2 3 2 2 1 2
2 2 3 3 4 4 5 5 4 5 5 4 4 4 5 5 4 3 3 3 2 2 1 1 1 2 2 2 2 4 4 3 3 2 1 1 2 3 3 2 2 3 2
1 2 3 2 2 3 5 5 5 5 3 3 3 4 4 4 4 4 3 3 3 3 1 1 1 1 1 1 2 3 4 4 3 3 2 2 2 3 3 2 2 2 2
1 1 2 2 1 3 4 5 4 3 2 2 3 3 3 3 4 5 4 3 3 3 2 2 1 2 2 1 1 3 3 3 3 2 2 1 2 2 2 2 2 2 2
1 1 2 1 1 1 3 4 3 3 3 3 3 3 4 3 3 3 4 4 3 3 3 2 2 2 1 1 1 1 2 2 1 1 0 1 1 1 1 1 1 1 1
1 1 2 2 2 1 1 2 3 3 4 3 3 3 3 3 3 2 2 3 3 5 5 4 4 4 3 4 4 3 2 2 2 2 1 1 1 1 0 0 0 1 1
1 1 2 2 1 1 1 1 2 4 4 3 2 2 3 3 3 3 1 2 1 2 4 5 5 4 5 4 4 3 3 3 4 3 1 1 1 1 2 1 1 1 1
Wind_Direction
214 190 183 176 164 163 171 176 164 156 137 123 126 119 123 38 326 255 212 174 153 151 148 141 136 135 135 151 136 126 117 107 110 79 359 347 339 310 277 256 242 239 232
199 193 184 180 176 178 182 184 183 173 166 158 149 145 141 161 198 292 41 175 180 177 170 153 163 148 139 139 139 134 125 121 125 131 90 344 344 341 311 275 245 252 241
199 197 191 190 185 189 191 193 191 185 179 163 129 100 72 41 25 6 331 316 225 201 183 172 167 164 163 175 179 163 165 188 184 159 161 179 251 313 331 326 306 289 268
199 196 196 195 199 201 193 188 187 188 183 167 158 158 168 194 228 223 250 332 329 210 187 172 174 175 175 181 186 173 180 176 196 205 209 210 193 203 306 320 320 306 274
199 198 199 200 200 195 189 183 178 189 184 175 174 172 186 202 213 117 106 346 337 62 146 154 161 184 190 186 182 173 178 182 190 196 193 207 227 217 222 276 303 315 290
201 198 192 190 194 185 180 176 177 193 186 182 182 183 191 191 187 200 205 232 252 265 203 181 181 189 196 196 193 188 188 194 196 202 201 195 197 205 208 237 274 292 297
196 193 187 189 190 182 181 179 178 195 195 191 194 195 196 192 198 207 208 211 221 235 243 215 200 203 206 200 183 184 201 196 198 213 224 225 225 206 197 211 248 275 294
195 199 197 194 190 185 181 180 187 198 197 196 201 196 195 197 209 211 207 212 220 231 234 227 225 219 212 204 184 189 210 198 211 225 224 234 234 212 206 201 200 259 291
195 198 194 189 184 184 187 188 191 200 202 204 199 197 199 203 212 213 209 217 223 232 222 221 219 223 213 202 186 198 214 211 223 234 228 239 244 226 223 211 203 197 246
189 190 189 191 188 188 187 185 191 199 203 202 203 210 206 209 208 197 207 220 228 226 213 218 213 216 214 193 189 205 213 204 232 235 239 251 254 236 222 206 205 208 212
196 192 191 190 184 177 177 181 188 191 199 205 207 209 206 203 198 203 214 218 225 219 217 218 211 215 219 212 200 216 214 216 236 245 241 260 259 239 224 200 191 202 204
194 187 182 172 167 175 178 182 188 191 197 190 185 202 209 198 202 213 218 214 219 222 215 209 210 218 226 218 208 220 223 220 229 239 237 251 245 229 214 193 201 209 209
171 169 170 173 176 176 180 187 191 194 190 176 180 202 213 213 220 224 221 217 218 220 209 196 214 225 227 221 220 218 223 223 225 227 229 237 224 240 238 215 219 222 220
167 167 176 178 176 177 180 182 190 189 182 179 184 198 218 223 226 223 219 223 217 212 218 218 224 228 225 218 221 218 221 224 233 236 238 235 228 227 223 223 220 212 211
169 180 186 183 178 177 181 183 184 183 182 184 196 209 217 217 218 217 219 221 219 225 221 218 223 232 228 228 223 218 217 218 230 242 248 242 229 216 209 219 212 196 205
191 189 185 180 181 184 190 189 191 185 173 183 204 205 199 209 214 213 207 209 222 226 218 217 218 225 239 240 203 194 204 204 208 236 259 246 224 225 197 189 186 183 193
197 195 195 192 193 189 186 192 194 180 176 192 202 197 194 202 212 209 197 208 219 215 219 224 218 230 250 233 197 187 185 187 202 216 234 245 258 190 201 175 159 159 189
195 199 201 198 197 186 180 185 168 167 181 195 205 207 203 208 206 195 203 212 208 214 227 232 229 234 260 228 199 184 181 175 198 208 211 212 254 245 169 160 116 334 273
209 205 200 194 186 178 172 159 163 168 180 196 201 202 204 206 198 196 213 213 190 216 241 247 237 234 261 227 193 174 169 167 217 231 216 205 216 235 132 137 157 312 315
209 205 183 170 175 185 166 160 176 179 197 203 200 196 196 199 196 195 197 185 173 202 213 268 264 243 255 243 189 174 168 175 212 234 234 213 197 178 154 163 176 228 278
195 174 157 169 187 175 158 164 180 201 210 198 185 186 193 192 188 182 182 171 173 168 165 201 289 280 267 253 190 170 175 190 195 214 245 244 193 176 180 180 203 227 227
163 148 141 175 194 167 158 173 202 215 199 180 178 184 185 181 171 166 176 172 168 166 182 198 306 315 302 260 216 180 183 184 183 209 226 224 179 170 175 191 219 194 163
196 160 148 161 211 188 173 187 219 203 166 167 181 182 173 171 169 170 173 172 175 179 198 207 238 290 311 297 239 195 189 194 195 218 217 196 173 170 168 182 180 166 162
206 157 133 153 248 238 204 207 212 179 162 176 185 179 171 170 166 170 176 179 189 194 203 214 228 254 275 284 258 212 193 179 177 203 117 102 126 129 141 128 173 195 195
202 163 161 191 233 246 237 213 192 168 169 182 187 181 177 170 164 161 179 192 206 200 200 215 216 215 234 245 224 191 192 193 179 140 105 83 101 107 130 198 195 181 182
208 182 166 176 210 210 243 230 188 171 170 181 188 180 174 165 158 151 97 47 168 192 199 205 209 226 221 207 192 181 169 157 144 131 152 181 195 218 225 230 247 230 224
Height
1518 1521 1522 1524 1526 1527 1529 1530 1531 1532 1534 1535 1535 1536 1536 1537 1538 1538 1539 1539 1539 1539 1540 1540 1541 1541 1542 1542 1542 1542 1542 1543 1543 1543 1543 1543 1543 1542 1542 1542 1542 1542 1542
1517 1519 1521 1523 1525 1526 1528 1530 1531 1532 1534 1535 1536 1536 1537 1537 1538 1538 1539 1539 1539 1540 1540 1540 1541 1541 1541 1541 1542 1542 1542 1542 1542 1543 1542 1542 1542 1541 1541 1541 1541 1541 1541
1514 1517 1519 1521 1523 1525 1527 1529 1530 1532 1533 1534 1535 1536 1537 1537 1537 1538 1538 1539 1539 1540 1540 1540 1540 1540 1541 1541 1541 1541 1541 1541 1542 1542 1543 1542 1541 1540 1540 1540 1540 1539 1539
1512 1514 1517 1519 1521 1523 1526 1528 1530 1531 1533 1534 1535 1536 1536 1536 1537 1538 1538 1539 1539 1540 1540 1540 1540 1540 1540 1540 1540 1540 1540 1540 1541 1541 1541 1541 1541 1540 1539 1539 1538 1538 1538
1510 1512 1514 1516 1519 1522 1525 1527 1529 1531 1532 1533 1534 1535 1536 1536 1537 1538 1538 1538 1539 1539 1539 1539 1539 1539 1539 1539 1539 1539 1539 1539 1539 1539 1539 1539 1539 1539 1538 1536 1536 1536 1536
1507 1509 1512 1515 1518 1520 1523 1525 1528 1529 1531 1532 1533 1534 1535 1536 1536 1537 1537 1538 1538 1538 1538 1538 1538 1537 1537 1537 1537 1537 1537 1537 1537 1537 1537 1537 1536 1536 1536 1535 1534 1533 1534
1504 1507 1509 1512 1515 1518 1521 1523 1525 1527 1529 1530 1531 1532 1533 1534 1535 1536 1536 1536 1536 1536 1536 1536 1536 1536 1535 1535 1535 1536 1535 1535 1536 1535 1535 1535 1534 1534 1534 1533 1532 1531 1531
1502 1504 1507 1510 1512 1515 1518 1520 1523 1525 1527 1528 1529 1530 1532 1533 1533 1534 1534 1535 1535 1535 1535 1535 1534 1534 1534 1534 1533 1533 1533 1533 1533 1533 1533 1533 1532 1531 1531 1531 1530 1529 1529
1499 1502 1504 1507 1510 1513 1515 1518 1520 1522 1524 1525 1527 1528 1529 1530 1531 1532 1532 1532 1533 1533 1533 1532 1532 1532 1531 1531 1531 1531 1530 1531 1530 1530 1530 1529 1529 1528 1528 1528 1528 1528 1526
1497 1500 1502 1505 1508 1511 1513 1516 1518 1520 1522 1524 1525 1526 1527 1528 1529 1529 1529 1530 1530 1530 1530 1530 1530 1529 1529 1529 1529 1528 1528 1528 1528 1527 1527 1526 1525 1525 1525 1525 1525 1525 1525
1495 1498 1500 1503 1506 1509 1511 1514 1516 1518 1520 1522 1523 1524 1525 1525 1526 1526 1527 1527 1527 1527 1527 1527 1527 1527 1527 1527 1526 1526 1525 1525 1525 1524 1524 1523 1522 1521 1521 1521 1522 1522 1523
1494 1496 1499 1502 1504 1507 1509 1511 1512 1514 1517 1518 1520 1521 1522 1523 1523 1523 1524 1524 1524 1524 1525 1525 1525 1524 1524 1524 1524 1523 1523 1522 1522 1522 1521 1520 1519 1519 1519 1519 1519 1520 1520
1493 1495 1498 1500 1502 1504 1506 1508 1509 1510 1513 1515 1517 1518 1519 1520 1520 1521 1521 1521 1521 1521 1522 1522 1522 1522 1522 1521 1521 1521 1520 1520 1519 1519 1518 1518 1517 1517 1516 1517 1517 1517 1517
1492 1494 1496 1498 1500 1502 1504 1505 1506 1508 1510 1512 1513 1514 1515 1516 1517 1518 1518 1519 1519 1519 1519 1519 1519 1519 1519 1519 1518 1518 1518 1517 1517 1516 1516 1516 1515 1515 1515 1515 1515 1515 1515
1491 1492 1494 1496 1499 1500 1502 1503 1504 1506 1507 1509 1510 1510 1512 1513 1514 1515 1515 1516 1516 1516 1515 1515 1515 1516 1516 1515 1515 1515 1515 1514 1514 1514 1514 1514 1513 1513 1513 1513 1512 1512 1512
1490 1491 1493 1495 1496 1498 1499 1501 1502 1503 1505 1506 1507 1508 1509 1509 1510 1511 1512 1512 1512 1512 1512 1512 1512 1512 1512 1512 1512 1512 1512 1512 1512 1512 1512 1511 1511 1511 1511 1510 1510 1510 1510
1488 1490 1491 1492 1494 1495 1497 1498 1500 1501 1502 1503 1504 1505 1506 1506 1507 1508 1508 1508 1509 1509 1509 1508 1508 1508 1509 1509 1509 1509 1509 1509 1509 1509 1509 1508 1508 1508 1508 1508 1508 1508 1507
1486 1488 1489 1491 1492 1493 1494 1496 1497 1498 1499 1499 1500 1501 1503 1503 1504 1504 1504 1504 1505 1505 1505 1505 1505 1505 1505 1506 1506 1507 1507 1506 1507 1507 1507 1506 1506 1506 1506 1506 1505 1505 1505
1485 1486 1487 1488 1489 1490 1491 1493 1494 1495 1495 1496 1497 1498 1499 1500 1500 1500 1501 1501 1501 1502 1502 1502 1502 1502 1503 1503 1503 1504 1504 1504 1504 1505 1505 1504 1504 1504 1504 1504 1503 1502 1502
1483 1484 1485 1486 1487 1488 1489 1490 1490 1491 1492 1492 1493 1494 1496 1496 1496 1497 1498 1498 1498 1498 1499 1499 1499 1499 1499 1500 1500 1501 1501 1501 1501 1502 1502 1502 1501 1501 1502 1501 1501 1500 1500
1481 1482 1483 1484 1484 1485 1486 1486 1487 1487 1488 1489 1489 1490 1492 1493 1494 1494 1495 1495 1495 1496 1496 1496 1496 1496 1496 1496 1497 1497 1497 1498 1498 1499 1499 1498 1498 1498 1499 1499 1498 1498 1498
1479 1479 1480 1481 1482 1483 1483 1483 1484 1484 1485 1485 1486 1487 1488 1489 1490 1491 1492 1492 1493 1493 1493 1493 1492 1493 1493 1493 1494 1494 1495 1495 1495 1495 1496 1496 1496 1495 1495 1495 1495 1495 1495
1477 1478 1478 1479 1480 1480 1481 1481 1481 1482 1482 1483 1483 1484 1485 1486 1487 1487 1488 1489 1490 1490 1490 1490 1489 1490 1490 1490 1491 1491 1491 1492 1493 1493 1493 1493 1493 1493 1492 1492 1492 1492 1491
1475 1476 1477 1477 1477 1478 1478 1479 1479 1480 1480 1480 1481 1481 1482 1483 1483 1484 1485 1486 1486 1487 1487 1487 1487 1487 1487 1487 1487 1488 1488 1489 1489 1490 1490 1490 1490 1490 1489 1489 1489 1488 1488
1473 1474 1474 1475 1476 1476 1476 1477 1477 1477 1477 1477 1478 1479 1479 1480 1481 1482 1483 1483 1484 1485 1484 1484 1484 1484 1484 1484 1485 1485 1485 1486 1486 1487 1487 1487 1487 1486 1486 1486 1485 1485 1485
1471 1472 1472 1473 1473 1474 1474 1475 1475 1475 1475 1475 1475 1476 1477 1478 1479 1479 1480 1481 1482 1482 1482 1482 1482 1481 1482 1482 1482 1483 1483 1484 1484 1484 1484 1484 1484 1483 1483 1483 1482 1482 1482